[[[{"header":{"parameterUnit":"kt","parameterCategory":2,"dx":1,"dy":1,"la1":30.253999710083008,"la2":30.299108505249023,"lo1":-89.0895004272461,"lo2":-89.04439544677734,"nx":28,"ny":28,"refTime":"2022-09-18T21:00:00:Z","depth":0,"parameterNumber":1,"parameterNumberName":"U-component_of_WINDS"},"data":[1.1944,1.1953,1.1938,1.1942,1.1928,1.1928,1.1923,1.1915,1.1905,1.1903,1.1899,1.1884,1.1867,1.1859,1.1854,1.1848,1.1846,1.1862,1.1852,1.1795,1.1786,1.1777,1.1774,1.1863,1.1863,1.1912,1.1912,1.1913,1.1908,1.1895,1.1892,1.1878,1.1876,1.1852,1.1839,1.1838,1.1839,1.1826,1.182,1.1817,1.1813,1.1789,1.1782,1.1786,1.1774,1.1786,1.1784,1.1782,1.1721,1.1718,1.1796,1.1796,1.1796,1.1796,1.1796,1.1796,1.1838,1.1844,1.1826,1.1822,1.1811,1.1802,1.1805,1.1785,1.1782,1.1772,1.1753,1.1752,1.1735,1.1717,1.1707,1.1707,1.169,1.1697,1.1699,1.1701,1.1706,1.1639,1.1705,1.1704,1.1704,1.1704,1.1704,0,1.1781,1.1767,1.1762,1.1753,1.1749,1.174,1.1729,1.1731,1.1694,1.1692,1.1689,1.1684,1.1675,1.1669,1.1658,1.1644,1.1617,1.1613,1.1617,1.1626,1.1637,1.1632,1.1533,1.161,1.1609,1.1608,1.1608,1.1608,1.1709,1.1717,1.1689,1.1688,1.1677,1.1676,1.1672,1.1638,1.1635,1.1616,1.1623,1.1617,1.161,1.1607,1.1582,1.1574,1.156,1.1592,1.1559,1.1569,1.1561,1.156,1.1561,1.1598,1.16,1.1601,1.1601,0,1.167,1.1642,1.1649,1.1619,1.1612,1.1623,1.1597,1.1602,1.1581,1.1584,1.1583,1.155,1.1547,1.1516,1.1506,1.149,1.1509,1.1496,1.1515,1.151,1.1536,1.1534,1.1621,1.1631,1.1539,1.154,1.1541,0,1.1597,1.1608,1.1565,1.1571,1.1583,1.1548,1.1562,1.1545,1.1528,1.153,1.1494,1.1496,1.1456,1.1455,1.1431,1.1441,1.1439,1.1427,1.142,1.143,1.1431,1.1426,1.1421,1.1405,1.1404,1.1404,1.1404,0,1.1538,1.1528,1.1536,1.1529,1.1498,1.1503,1.149,1.147,1.1465,1.1454,1.1451,1.1441,1.1435,1.1428,1.1398,1.1377,1.1409,1.1373,1.1396,1.1397,1.1404,1.1403,1.149,1.1403,1.1403,1.1403,1.1403,0,1.1473,1.1462,1.1479,1.1452,1.145,1.1456,1.1443,1.1441,1.1422,1.1407,1.1398,1.1369,1.1374,1.1342,1.1348,1.1329,1.1326,1.1315,1.1316,1.1313,1.1277,1.133,1.1416,1.1423,1.1314,1.1313,1.1312,0,1.1414,1.1422,1.1391,1.1407,1.1406,1.1365,1.1371,1.1355,1.1335,1.1332,1.131,1.1306,1.1275,1.1269,1.1277,1.1254,1.1278,1.1249,1.1245,1.1246,1.1252,1.133,1.135,1.1401,1.1302,1.1303,1.1304,0,1.1363,1.1323,1.1328,1.1318,1.129,1.1288,1.1295,1.1283,1.1282,1.1267,1.1272,1.1265,1.1241,1.1231,1.1206,1.1215,1.1261,1.1188,1.1187,1.1203,1.1294,1.1313,1.1322,1.1242,1.1243,1.1244,1.1296,0,1.1273,1.1272,1.1284,1.1262,1.1255,1.1263,1.1228,1.1227,1.1203,1.1181,1.1186,1.1163,1.1149,1.115,1.1126,1.1157,1.1147,1.1121,1.1085,1.1137,1.1154,1.116,1.1064,1.1063,1.1062,1.1061,0,0,1.1223,1.122,1.1184,1.1188,1.118,1.1135,1.1147,1.1134,1.1109,1.1104,1.1085,1.1071,1.1052,1.1062,1.1076,1.107,1.1072,1.1055,1.1113,1.1119,1.1124,1.1142,1.115,1.1059,1.1059,1.1058,1.1058,0,1.1182,1.1164,1.1175,1.116,1.1136,1.1112,1.1115,1.1083,1.1069,1.1073,1.1035,1.1034,1.1023,1.1008,1.0999,1.1053,1.1024,1.1052,1.1093,1.1103,1.1111,1.1117,1.1137,1.1144,1.1055,1.1055,1.1056,0,1.1126,1.1102,1.1103,1.1083,1.1066,1.1066,1.1021,1.1021,1.1021,1.0969,1.0973,1.0955,1.0932,1.0946,1.095,1.0932,1.0982,1.0959,1.0965,1.0964,1.0972,1.0981,1.0989,1.0885,1.0884,1.0884,0,0,1.1095,1.1093,1.1056,1.1071,1.1063,1.1027,1.1022,1.0997,1.0977,1.0969,1.0945,1.0927,1.092,1.0916,1.0907,1.0927,1.0919,1.0939,1.0948,1.0954,1.0957,1.0968,1.0976,1.0882,1.0882,1.0882,0,0,1.108,1.1037,1.1016,1.1029,1.1012,1.0975,1.0986,1.0959,1.0947,1.0942,1.0899,1.0892,1.0903,1.0886,1.0868,1.0894,1.086,1.0863,1.0904,1.0914,1.0922,1.0925,1.0817,0,0,0,0,0,1.1018,1.1042,1.1024,1.102,1.0992,1.0986,1.0982,1.0947,1.0924,1.0933,1.0909,1.0877,1.0868,1.0851,1.0849,1.0869,1.0861,1.0864,1.0868,1.0925,1.0936,1.0945,0,0,0,0,0,0,1.1017,1.1013,1.1023,1.0988,1.0981,1.0984,1.0938,1.0929,1.0922,1.0916,1.0883,1.0876,1.0845,1.085,1.0848,1.0868,1.0818,1.0862,1.0865,1.0868,1.0929,1.0938,1.0945,0,0,0,0,0,1.1015,1.1012,1.0977,1.0987,1.0981,1.0941,1.0936,1.0929,1.0923,1.0883,1.0875,1.0897,1.0847,1.0843,1.0849,1.087,1.0819,1.0818,1.0864,1.0867,1.0869,1.0933,0,0,0,0,0,0,1.1014,1.1005,1.0975,1.0972,1.0975,1.094,1.0933,1.0929,1.0889,1.0882,1.0895,1.0891,1.0848,1.0845,1.0842,1.0872,1.082,1.0819,1.0819,1.0866,1.0868,1.087,0,0,0,0,0,0,1.1006,1.1003,1.0973,1.096,1.0955,1.0939,1.0933,1.0932,1.089,1.0903,1.0898,1.0894,1.0852,1.0847,1.0844,1.0844,1.082,1.082,1.0819,1.0819,1.0868,1.0869,0,0,0,0,0,0,1.1004,1.1001,1.096,1.0957,1.0952,1.0915,1.0938,1.0911,1.0879,1.0906,1.0875,1.0873,1.0855,1.0852,1.0846,1.0847,1.0845,1.082,1.082,1.082,1.082,0,0,0,0,0,0,0,1.1002,1.1032,1.0993,1.0954,1.095,1.0944,1.0943,1.0942,1.0879,1.0877,1.0875,1.0874,1.0823,1.0823,1.0822,1.085,0,0,1.082,1.082,0,0,0,0,0,0,0,0,1.1032,1.1032,1.0993,1.0992,1.0992,1.0944,1.0943,1.0942,1.0878,1.0877,1.0876,1.0875,1.0823,1.0823,1.0822,0,0,0,0,0,0,0,0,0,0,0,0,0,0,0,1.0993,1.0992,0,1.0943,1.0943,1.0942,1.0878,1.0877,1.0876,1.0875,1.0823,1.0823,1.0822,0,0,0,0,0,0,0,0,0,0,0,0,0,0,0,0,0,0,0,0,0,0,0,0,0,0,0,0,0,0,0,0,0,0,0,0,0,0,0,0,0,0,0,0,0,0,0,0,0,0,0,0,0,0,0,0,0,0,0,0,0,0,0,0,0,0,0,0,0]}],[{"header":{"parameterUnit":"kt","parameterCategory":2,"dx":1,"dy":1,"la1":30.253999710083008,"la2":30.299108505249023,"lo1":-89.0895004272461,"lo2":-89.04439544677734,"nx":28,"ny":28,"refTime":"2022-09-18T21:00:00:Z","depth":0,"parameterNumber":2,"parameterNumberName":"V-component_of_WINDS"},"data":[-4.8476,-4.8568,-4.8588,-4.8702,-4.874,-4.8821,-4.8856,-4.8903,-4.8946,-4.9045,-4.9105,-4.9133,-4.9182,-4.9258,-4.9324,-4.9334,-4.9361,-4.938,-4.9389,-4.9287,-4.9274,-4.9262,-4.9242,-4.9385,-4.9385,-4.9492,-4.9493,-4.9493,-4.8402,-4.844,-4.8506,-4.8583,-4.864,-4.8635,-4.8695,-4.8742,-4.8815,-4.8868,-4.8927,-4.9015,-4.9087,-4.913,-4.9202,-4.9245,-4.9245,-4.9263,-4.9259,-4.9267,-4.9159,-4.9137,-4.9261,-4.9261,-4.9261,-4.9261,-4.9261,-4.9261,-4.8273,-4.8327,-4.8385,-4.8457,-4.8501,-4.8552,-4.8607,-4.8641,-4.8705,-4.8783,-4.8793,-4.8874,-4.893,-4.9025,-4.9061,-4.9125,-4.9108,-4.9133,-4.9139,-4.9145,-4.9149,-4.8994,-4.9137,-4.9137,-4.9137,-4.9137,-4.9136,0,-4.8184,-4.8197,-4.8261,-4.8331,-4.8384,-4.844,-4.8495,-4.8529,-4.8561,-4.8612,-4.8688,-4.8735,-4.8827,-4.89,-4.897,-4.9002,-4.9,-4.9001,-4.9018,-4.9014,-4.9003,-4.901,-4.8833,-4.8996,-4.8995,-4.8994,-4.8994,-4.8993,-4.8054,-4.8115,-4.8184,-4.8227,-4.8261,-4.8329,-4.8373,-4.8397,-4.8442,-4.8512,-4.8558,-4.8632,-4.8691,-4.8809,-4.8845,-4.8913,-4.8912,-4.8973,-4.8922,-4.8917,-4.8913,-4.8909,-4.8916,-4.8981,-4.8983,-4.8984,-4.8985,0,-4.7979,-4.801,-4.811,-4.8172,-4.819,-4.8252,-4.8305,-4.8359,-4.8385,-4.8464,-4.8483,-4.8524,-4.8597,-4.8624,-4.8712,-4.8724,-4.8827,-4.8824,-4.8808,-4.8809,-4.8866,-4.886,-4.9045,-4.9071,-4.8922,-4.8924,-4.8925,0,-4.7881,-4.7959,-4.8,-4.8057,-4.8145,-4.8166,-4.8252,-4.8283,-4.833,-4.8392,-4.8394,-4.8451,-4.8477,-4.8539,-4.8556,-4.8644,-4.8661,-4.8675,-4.8678,-4.8675,-4.8673,-4.8698,-4.869,-4.8684,-4.8683,-4.8682,-4.8681,0,-4.776,-4.7873,-4.7965,-4.7996,-4.8069,-4.8111,-4.8143,-4.8196,-4.8239,-4.8298,-4.8326,-4.8393,-4.843,-4.8482,-4.8504,-4.8468,-4.8612,-4.8568,-4.8626,-4.8626,-4.8656,-4.8653,-4.8812,-4.868,-4.868,-4.8679,-4.8679,0,-4.7684,-4.7744,-4.7873,-4.7934,-4.7962,-4.8022,-4.809,-4.8148,-4.8203,-4.8218,-4.8265,-4.8268,-4.8347,-4.8302,-4.8412,-4.836,-4.8396,-4.8417,-4.8421,-4.8429,-4.8377,-4.8462,-4.8611,-4.8627,-4.8438,-4.8436,-4.8434,0,-4.7537,-4.7674,-4.7693,-4.7814,-4.7881,-4.7878,-4.7945,-4.7994,-4.8019,-4.8079,-4.8106,-4.8174,-4.8146,-4.817,-4.8221,-4.8252,-4.8319,-4.8243,-4.8328,-4.8331,-4.8314,-4.8451,-4.8466,-4.8576,-4.8409,-4.8411,-4.8413,0,-4.7427,-4.7515,-4.7535,-4.7571,-4.7639,-4.7694,-4.7771,-4.7843,-4.7882,-4.7936,-4.8001,-4.8096,-4.8079,-4.8119,-4.8128,-4.8179,-4.8274,-4.8153,-4.8155,-4.8174,-4.8398,-4.8412,-4.843,-4.8269,-4.8272,-4.8274,-4.8393,0,-4.7305,-4.7377,-4.7433,-4.7511,-4.7558,-4.7634,-4.7663,-4.7708,-4.7713,-4.7737,-4.7832,-4.7878,-4.7949,-4.7976,-4.7981,-4.809,-4.8075,-4.8055,-4.8012,-4.8102,-4.8142,-4.8158,-4.7951,-4.795,-4.7949,-4.7948,0,0,-4.7157,-4.726,-4.7277,-4.7353,-4.7393,-4.7388,-4.7467,-4.7506,-4.7583,-4.7611,-4.7588,-4.7728,-4.7766,-4.7878,-4.7908,-4.7937,-4.7959,-4.7926,-4.8059,-4.8071,-4.8083,-4.8125,-4.8141,-4.7946,-4.7946,-4.7946,-4.7945,0,-4.7118,-4.7159,-4.7237,-4.7278,-4.7339,-4.7361,-4.738,-4.7439,-4.7458,-4.7551,-4.7544,-4.7604,-4.7715,-4.7756,-4.7791,-4.7913,-4.7904,-4.7933,-4.799,-4.8049,-4.8062,-4.8074,-4.8118,-4.8133,-4.7943,-4.7943,-4.7943,0,-4.7014,-4.7059,-4.7099,-4.7191,-4.7231,-4.7299,-4.7261,-4.7334,-4.7384,-4.7373,-4.7464,-4.7493,-4.755,-4.7652,-4.7698,-4.7678,-4.7853,-4.7802,-4.7808,-4.7814,-4.7872,-4.7888,-4.7902,-4.7712,-4.7711,-4.771,0,0,-4.6977,-4.7043,-4.7096,-4.7185,-4.721,-4.7243,-4.7282,-4.729,-4.7341,-4.7362,-4.7398,-4.7448,-4.7513,-4.7555,-4.7616,-4.7725,-4.7738,-4.7772,-4.7783,-4.7792,-4.7802,-4.7862,-4.7878,-4.7707,-4.7707,-4.7707,0,0,-4.6958,-4.7024,-4.7019,-4.7125,-4.7175,-4.7232,-4.7284,-4.728,-4.7338,-4.7332,-4.7348,-4.7362,-4.7457,-4.7485,-4.7436,-4.7601,-4.7558,-4.757,-4.7579,-4.7593,-4.7604,-4.7595,-4.7402,0,0,0,0,0,-4.6932,-4.7016,-4.7011,-4.7033,-4.7147,-4.7235,-4.725,-4.7265,-4.7235,-4.7276,-4.7306,-4.7293,-4.7462,-4.7419,-4.744,-4.7494,-4.7662,-4.767,-4.7678,-4.7715,-4.773,-4.7742,0,0,0,0,0,0,-4.6941,-4.6968,-4.7009,-4.7069,-4.7095,-4.7232,-4.7184,-4.719,-4.723,-4.7227,-4.7287,-4.7295,-4.7308,-4.7409,-4.7428,-4.7479,-4.7396,-4.7665,-4.7672,-4.7678,-4.772,-4.7732,-4.7742,0,0,0,0,0,-4.6948,-4.6969,-4.715,-4.7068,-4.7091,-4.7131,-4.7181,-4.7186,-4.7217,-4.7262,-4.7269,-4.7225,-4.731,-4.7326,-4.7421,-4.747,-4.7383,-4.739,-4.767,-4.7675,-4.768,-4.7726,0,0,0,0,0,0,-4.6953,-4.6974,-4.7154,-4.7162,-4.7037,-4.7124,-4.7138,-4.7182,-4.725,-4.7258,-4.72,-4.7197,-4.7311,-4.7324,-4.7337,-4.7466,-4.7373,-4.738,-4.7384,-4.7674,-4.7678,-4.7682,0,0,0,0,0,0,-4.6963,-4.6981,-4.7158,-4.7119,-4.7122,-4.7117,-4.713,-4.7211,-4.7251,-4.7184,-4.7183,-4.7198,-4.7292,-4.7323,-4.7333,-4.746,-4.7365,-4.7371,-4.7376,-4.7379,-4.7677,-4.768,0,0,0,0,0,0,-4.6971,-4.6986,-4.7117,-4.7119,-4.7122,-4.7206,-4.7189,-4.7306,-4.7218,-4.7181,-4.7211,-4.7207,-4.7291,-4.7301,-4.733,-4.7453,-4.7458,-4.7365,-4.7369,-4.7373,-4.7375,0,0,0,0,0,0,0,-4.6977,-4.6871,-4.7111,-4.712,-4.7122,-4.723,-4.7232,-4.7234,-4.7218,-4.7215,-4.7212,-4.7209,-4.7326,-4.7334,-4.7341,-4.7447,0,0,-4.7364,-4.7367,0,0,0,0,0,0,0,0,-4.6865,-4.6869,-4.7111,-4.7112,-4.7114,-4.7231,-4.7232,-4.7234,-4.7217,-4.7215,-4.7212,-4.721,-4.7328,-4.7334,-4.734,0,0,0,0,0,0,0,0,0,0,0,0,0,0,0,-4.7111,-4.7112,0,-4.7231,-4.7232,-4.7234,-4.7217,-4.7215,-4.7213,-4.7211,-4.733,-4.7335,-4.734,0,0,0,0,0,0,0,0,0,0,0,0,0,0,0,0,0,0,0,0,0,0,0,0,0,0,0,0,0,0,0,0,0,0,0,0,0,0,0,0,0,0,0,0,0,0,0,0,0,0,0,0,0,0,0,0,0,0,0,0,0,0,0,0,0,0,0,0,0]}]]]